This demonstration page uses our WeatherBlox Daily Observations layout. Learn more.

Left ArrowRight Arrow

53.62937, 11.41316

Hourly Observations for December 9, 2019

Temp ( °F °C ) Dew Point ( °F °C ) Humidity (%) Winds ( mph kmh ) Pressure ( in mb ) Visibility ( mi km ) Precip ( " mm )
6:50 am 06:50 Mostly Cloudy 43 6 37 3 81 81 SW 10 17 29.33 993 30 48 N/A
7:20 am 07:20 Mostly Cloudy 43 6 37 3 81 81 SW 13 20 29.33 993 30 48 N/A
7:50 am 07:50 Mostly Cloudy 43 6 37 3 81 81 SSW 13 20 29.33 993 30 48 N/A
8:20 am 08:20 Mostly Clear 43 6 37 3 81 81 SW 12 19 29.33 993 30 48 N/A
8:50 am 08:50 Partly Cloudy 43 6 37 3 81 81 SSW 10 17 29.33 993 30 48 N/A
9:20 am 09:20 Partly Cloudy 43 6 37 3 81 81 SW 12 19 29.35 994 30 48 N/A
9:50 am 09:50 Mostly Cloudy 45 7 37 3 76 76 SSW 10 17 29.35 994 30 48 N/A
10:20 am 10:20 Mostly Cloudy 45 7 39 4 81 81 SW 12 19 29.35 994 30 48 N/A
10:50 am 10:50 Mostly Cloudy 45 7 39 4 81 81 SSW 13 20 29.35 994 30 48 N/A
11:20 am 11:20 Mostly Cloudy 45 7 39 4 81 81 SSW 12 19 29.35 994 30 48 N/A
11:50 am 11:50 Partly Cloudy 46 8 39 4 76 76 SW 12 19 29.35 994 30 48 N/A
12:20 pm 12:20 Partly Cloudy 46 8 39 4 76 76 SW 12 19 29.35 994 30 48 N/A
12:50 pm 12:50 Partly Cloudy 46 8 39 4 76 76 SW 12 19 29.38 995 30 48 N/A
1:20 pm 13:20 Mostly Cloudy 46 8 39 4 76 76 SW 14 22 29.38 995 30 48 N/A
1:50 pm 13:50 Mostly Cloudy 45 7 39 4 81 81 SW 12 19 29.38 995 30 48 N/A
2:20 pm 14:20 Mostly Cloudy 45 7 39 4 81 81 SW 12 19 29.38 995 30 48 N/A
2:50 pm 14:50 Mostly Cloudy 45 7 39 4 81 81 SW 12 19 29.41 996 30 48 N/A
3:20 pm 15:20 Partly Cloudy 45 7 41 5 87 87 SW 9 15 29.41 996 30 48 N/A
3:50 pm 15:50 Mostly Cloudy 45 7 41 5 87 87 SW 10 17 29.44 997 30 48 N/A
4:20 pm 16:20 Mostly Cloudy with Light Rain 45 7 41 5 87 87 WSW 10 17 29.44 997 6 9 N/A
4:50 pm 16:50 Mostly Cloudy with Light Rain 43 6 41 5 93 93 W 9 15 29.47 998 6 9 N/A
5:20 pm 17:20 Mostly Cloudy with Light Rain 43 6 41 5 93 93 W 7 11 29.50 999 30 48 N/A
5:50 pm 17:50 Mostly Clear 43 6 39 4 87 87 W 5 7 29.53 1000 7 11 N/A
6:20 pm 18:20 Mostly Clear 43 6 39 4 87 87 W 6 9 29.56 1001 7 11 N/A
6:50 pm 18:50 Mostly Clear 43 6 37 3 81 81 W 7 11 29.56 1001 7 11 N/A
7:20 pm 19:20 Mostly Clear 41 5 37 3 87 87 W 7 11 29.59 1002 7 11 N/A
7:50 pm 19:50 Mostly Clear 41 5 36 2 81 81 W 7 11 29.62 1003 7 11 N/A

Powered by AerisWeather